Location: Beverley
(50.2667°N, 107.9667°W)
Time: 07:11:28
(UTC+00:00)

EO-79 - Pass Details

Date: 06 July 2022
Orbit: 588 x 603 km, 98.0° (Epoch: 17 August)

Event Time Altitude Azimuth Distance (km) Brightness Sun altitude
Rises 08:13:05 0° 23° (NNE) 2,862 ? -16.0°
Reaches altitude 10° 08:15:32 10° 35° (NE) 1,956 ? -15.9°
Maximum altitude 08:19:11 27° 95° (E) 1,164 ? -15.8°
Enters shadow 08:21:53 15° 145° (SE) 1,647 ? -15.6°
